COSMOS 1275 DEB, 14557

Orbit data source: Space-Track

COSMOS 1275 DEB, 14557 is space debris in LEO originally from a launch on Thu, 04 Jun 1981 UTC launched from the Plesetsk Missile And Space Complex (PKMTR). Debris objects in space refer to the collection of defunct objects orbiting the Earth. Examples of debris include non-operational satellites, rocket bodies, and fragments generated from explosions, collisions, or faulty payload assembly.

Loading next visibility...
Identifier
14557, 1981-053JM
Orbit
LEO
Country
Flag of CISCIS
Related business
Manufacturer
Unknown
Mission
Spacecraft
Bus & Motor
Unknown
Mass
Unknown
Launch date (UTC)
1981-06-04 (45 years ago)
Launch vehicle
Unknown
Launch site
Plesetsk Missile And Space Complex (PKMTR)
Object type
Payload
Rocket body
Debris
Shape & HBR
Unknown shape, 0.1 m
Radar Cross Section
Medium (>0.1 m² and <1 m²)

Expand to show TLE details & history
Last TLE update: 1 day ago

TLE from 1 day ago
0 COSMOS 1275 DEB
1 14557U 81053JM  26206.27421112  .00004112  00000-0  14982-2 0  9999
2 14557  82.7884 294.8226 0038593 137.4695 277.8576 14.32527246285279
Epoch: 2026-07-25T06:34Z
TLE epoch observation values (Epoch: 2026-07-25T06:34:51.840Z)
Latitude
54.34939°
Longitude
-96.77596°
Altitude
788.595 km
Speed
7.467 km/s
True Right ascension
20h 19m 42s
True Declination
54° 11' 13"
Sunlit
Object was in daylight at epoch
Visualization orbit readout
Latitude
Unknown
Longitude
Unknown
Altitude
Unknown
Speed
Unknown
Apparent Right ascension
Unknown
Apparent Declination
Unknown
Sunlit
N/A
Visualization observer readout
Local Sidereal Time
03:21:35
Azimuth
Unknown
Elevation
Unknown
Doppler factor
Unknown
Orbital elements
Apogee altitude
807.998 km
Perigee altitude
752.745 km
Semi-major axis
7,158.508 km
Eccentricity
0.00386
Inclination
82.7884°
RAAN
294.8226°
Arg. of periapsis
137.4695°
True anomaly
277.41922°
Mean anomaly
277.8576°
Eccentric anomaly
277.63844°
Mean motion
3.58352 °/min
Orbital period
100.46 mins
BSTAR
0.0014982
Loading maneuver chart data...
Computing Atmospheric mass density...

Documentation

Showing up to 5 results
|